Overview Statistics Trail Chart Weather Telemetry Raw packets
 

This is the latest recevied weather packets stored in our database for station/object K2CAT. If no packets are shown the sender has not sent any weather packets the latest 10 day(s).

<< 42 43 44 45 46 47 48 >>
Time Temp. Humidity Pressure Rain* Wind** Luminosity Snow
1777427123 13.89° C 57% 1017.2 hPa 0 mm - 0 W/m² -
1777426821 13.89° C 58% 1017.1 hPa 0 mm - 0 W/m² -
1777426518 14.44° C 60% 1017.5 hPa 0 mm - 0 W/m² -
1777426214 14.44° C 57% 1017.5 hPa 0 mm - 0 W/m² -
1777425909 13.89° C 56% 1017.4 hPa 0 mm - 0 W/m² -
1777425605 13.89° C 59% 1017.4 hPa 0 mm - 0 W/m² -
1777425301 13.89° C 56% 1017.3 hPa 0 mm - 0 W/m² -
1777424999 13.89° C 58% 1017.2 hPa 0 mm - 0 W/m² -
1777424693 14.44° C 58% 1017 hPa 0 mm - 0 W/m² -
1777424387 14.44° C 57% 1017 hPa 0 mm - 0 W/m² -
1777424084 15° C 56% 1017 hPa 0 mm - 0 W/m² -
1777423782 15° C 55% 1017 hPa 0 mm - 0 W/m² -
1777423478 15° C 55% 1016.9 hPa 0 mm - 0 W/m² -
1777423174 15.56° C 54% 1016.8 hPa 0 mm - 0 W/m² -
1777422873 15.56° C 51% 1017 hPa 0 mm - 0 W/m² -
1777422569 15.56° C 50% 1016.7 hPa 0 mm - 0 W/m² -
1777422265 16.11° C 49% 1016.7 hPa 0 mm - 0 W/m² -
1777421965 16.11° C 49% 1016.7 hPa 0 mm - 0 W/m² -
1777421660 16.67° C 47% 1016.7 hPa 0 mm - 0 W/m² -
1777421355 16.67° C 46% 1016.8 hPa 0 mm - 0 W/m² -
1777421051 16.67° C 47% 1016.9 hPa 0 mm - 0 W/m² -
1777420748 16.67° C 46% 1016.7 hPa 0 mm - 1 W/m² -
1777420444 16.67° C 45% 1016.8 hPa 0 mm - 1 W/m² -
1777420141 16.67° C 46% 1017.2 hPa 0 mm - 2 W/m² -
1777419836 17.22° C 45% 1016.9 hPa 0 mm - 3 W/m² -

* Rain latest hour (hover to see other rain measurements)
** Current wind speed in m/s (hover to see current wind gust speed)